Orbital Elements at Epoch 2459000.5 (2020-May-31.0) TDB
Reference: JPL 13 (heliocentric ecliptic J2000)
Element | Value | Uncertainty (1-sigma) | Units |
e | .2539896583231274 | 8.5673e-08 | |
a | 2.181241023467696 | 1.5949e-08 | au |
q | 1.627228361196747 | 1.7862e-07 | au |
i | 7.096620740602829 | 1.0159e-05 | deg |
node | 157.2669423871568 | 6.3119e-05 | deg |
peri | 141.6946964350214 | 6.7195e-05 | deg |
M | 205.4940600737314 | 3.0597e-05 | deg |
tp | 2459505.506062816564 (2021-Oct-18.00606282) | 0.00010417 | TDB |
period | 1176.667917755916 3.22 | 1.2905e-05 3.533e-08 | d yr |
n | .305948683199058 | 3.3556e-09 | deg/d |
Q | 2.735253685738645 | 2e-08 | au |
|
| | Orbit Determination Parameters
Additional Information
|